Retour au catalogue

SL-12 R/B

AUX MOTOR

ActifHEO
NORAD 32280·ROCKET BODY·🇷🇺 Russia

Lancé Oct 26, 2007 depuis Baikonur Cosmodrome

Loading…

Prochains Passages (prochaines 24 heures)

TLE

FraisSource: Space-Track

Époque: Sep 14, 2026, 16:14 UTC

1 32280U 07052F   26257.67644137  .00000021  00000-0  24950-3 0  9995
2 32280  65.1031 293.1644 5659643 214.5045  90.6434  4.21934898196797

Suivez SL-12 R/B en temps réel avec AllMySat

Download on the App Store